Location: Central Coast NSW, Australia
(33.2407°S, 151.4316°E)
Time: 08:02:40
(UTC+10:00)

N. Korean satellite - Pass Details

Date: 23 March 2019
Orbit: 457 x 508 km, 97.2° (Epoch: 21 April)

Event Time Altitude Azimuth Distance (km) Brightness Sun altitude
Rises 06:07:52 0° 21° (NNE) 2,588 10.4 -11.5°
Reaches altitude 10° 06:09:57 10° 25° (NNE) 1,718 9.6 -11.1°
Maximum altitude 06:13:36 58° 104° (ESE) 605 7.4 -10.3°
Drops below altitude 10° 06:17:19 10° 182° (S) 1,756 9.4 -9.6°
Sets 06:19:28 0° 186° (S) 2,651 10.3 -9.1°
